RH
41 41 44 47 49 46 46 44 44 48 45 42 42 42 44 41 38 44 56 64 64 61 60 61 63 63 56 50 58 70 74 74 74 70 64 64 67 66 67 69 70 69 68 71 74 74 75 80 84 83 82 84 85 84 84 85 87 87 86 86 85 87 87 85 84 83 82 81 82 82 82 80 80 81 81 82 82 84 85 87 87 87 88 87 91
41 41 43 46 49 47 45 45 45 47 45 42 42 42 44 44 39 38 49 62 64 62 62 64 65 65 59 51 58 68 69 70 70 66 63 65 68 69 66 66 67 68 69 72 74 76 81 83 84 84 82 80 82 89 88 85 90 88 86 85 83 84 82 79 78 76 76 78 77 75 76 76 76 77 78 78 79 81 83 84 83 82 84 84 86
40 38 41 45 49 49 45 45 47 47 45 42 41 42 43 44 43 40 45 57 64 63 64 66 67 67 62 55 59 65 65 65 65 62 61 62 63 64 63 64 67 68 70 73 75 78 85 85 84 85 85 84 83 88 91 91 95 92 86 83 81 80 77 77 77 77 80 82 81 77 75 75 74 74 75 74 74 72 67 61 58 58 66 75 81
39 36 40 45 48 51 48 45 48 48 46 44 41 41 41 44 46 46 50 57 62 63 66 68 67 68 63 57 59 63 62 60 60 59 59 60 57 54 54 56 59 59 58 59 60 63 69 71 72 75 76 78 79 80 83 87 91 93 90 84 80 79 75 77 81 84 87 86 84 81 79 79 77 76 76 75 72 68 62 58 59 61 67 75 81
38 35 38 44 47 51 50 46 49 49 47 46 42 39 38 41 45 47 50 52 53 56 62 68 69 69 66 62 62 64 60 56 58 60 61 60 57 54 52 51 51 49 45 41 37 35 38 42 47 57 66 72 75 77 78 80 84 88 91 87 84 81 78 82 87 88 88 87 85 84 83 82 81 78 76 76 75 74 75 76 80 82 83 84 84
37 37 36 41 45 50 50 47 50 49 48 48 43 39 38 40 43 44 45 44 45 47 53 63 69 71 68 65 64 62 59 59 62 63 63 60 57 55 53 52 50 47 43 37 30 26 26 28 30 38 56 71 76 79 80 81 85 86 87 89 89 85 82 85 88 88 88 86 84 83 82 81 80 79 76 77 78 79 80 81 83 83 84 84 85
39 40 36 39 44 49 50 49 53 50 48 48 44 41 41 43 44 44 46 44 44 47 52 61 68 71 70 67 65 63 63 65 66 64 62 57 53 53 52 50 47 43 40 33 31 38 39 36 34 33 44 62 72 77 78 79 83 85 86 88 89 87 84 85 86 86 85 83 82 80 79 79 80 81 81 81 81 81 80 79 80 80 81 82 83
42 42 39 44 47 47 49 53 54 51 49 48 44 42 42 46 46 45 47 46 44 43 47 56 63 67 70 68 62 62 66 65 62 61 57 51 49 50 48 46 44 39 35 30 29 43 52 47 45 44 42 48 58 65 70 72 75 80 85 86 87 85 84 85 84 84 84 82 81 80 80 82 82 82 83 81 79 79 76 74 73 74 75 76 79
43 44 44 50 52 48 50 55 55 51 50 48 44 42 42 45 47 47 47 48 48 44 42 46 52 60 67 66 58 56 61 60 56 54 50 47 47 46 43 42 39 34 31 29 24 32 46 49 50 51 46 47 52 56 61 62 64 70 74 79 84 83 81 82 83 84 85 84 82 83 85 85 83 81 79 77 75 74 73 73 73 72 74 74 76
44 45 47 49 50 50 53 56 55 51 50 48 42 42 43 43 45 46 47 48 48 48 45 43 46 53 59 60 58 57 58 57 52 50 48 46 45 43 40 38 34 30 27 26 24 25 32 33 33 38 48 57 56 55 57 50 48 56 62 68 75 80 82 80 82 86 86 86 83 84 86 83 79 76 74 73 73 72 73 74 74 75 76 78 79
45 47 50 49 47 51 56 55 53 52 52 48 41 41 42 41 41 41 44 47 47 47 47 45 43 42 45 48 52 54 53 51 49 47 46 44 42 40 37 33 29 29 27 24 25 27 27 22 15 18 40 59 61 57 51 43 42 45 54 65 65 69 79 81 84 87 88 87 85 85 86 82 78 75 74 74 74 73 73 73 73 75 76 77 78
46 48 52 51 48 53 59 55 51 53 53 47 42 42 41 40 39 36 39 45 45 43 41 41 41 37 38 38 39 43 43 41 39 38 38 39 39 36 32 30 28 28 27 25 26 28 29 25 19 16 23 36 50 48 37 43 49 38 44 61 61 55 61 74 83 87 89 89 87 88 87 85 82 79 79 79 78 76 73 72 72 73 75 75 76
49 51 51 49 45 52 63 60 53 54 53 48 46 46 42 40 38 36 39 42 42 42 38 37 37 36 36 35 34 35 36 35 32 30 30 31 32 31 29 28 27 27 27 26 27 28 29 28 25 24 20 21 32 32 31 48 52 38 39 50 55 53 50 57 70 80 87 89 88 89 88 87 87 84 83 83 81 79 75 73 71 71 74 74 74
47 52 54 50 44 48 61 64 58 55 53 51 49 47 46 44 40 38 39 40 41 41 38 36 39 39 35 35 35 32 32 34 31 29 27 23 22 24 26 25 24 25 27 27 28 28 28 28 25 25 25 22 21 22 30 43 45 44 42 34 36 48 52 53 57 66 78 85 87 88 88 87 86 85 85 84 81 78 75 72 70 71 72 73 73
42 50 56 55 51 49 56 62 59 55 54 52 50 48 48 46 43 43 42 42 44 43 40 37 38 42 40 41 47 42 36 34 29 27 26 19 16 19 21 20 21 24 24 25 27 28 27 26 23 23 27 25 20 20 24 31 38 44 40 29 24 30 49 59 55 59 69 77 83 86 87 86 85 86 85 83 79 74 72 70 69 70 72 72 71
40 47 52 54 53 51 52 56 56 54 54 52 50 49 48 47 44 43 44 45 45 45 46 43 39 41 47 57 61 54 50 45 33 26 23 19 16 17 18 17 20 23 22 23 24 26 26 22 20 23 27 27 23 20 22 26 31 33 29 27 22 17 39 59 57 59 65 71 78 81 84 85 84 84 81 78 74 70 69 69 68 69 69 69 70
41 47 48 49 51 49 47 47 50 53 54 51 50 50 49 48 44 41 41 44 44 45 47 46 43 42 51 66 66 62 69 61 41 31 23 20 19 18 18 16 18 21 20 21 24 25 25 21 18 21 26 28 25 21 22 24 24 24 22 21 19 15 31 54 57 59 63 66 71 75 80 83 82 81 77 72 70 69 69 69 68 67 65 65 67
39 45 44 43 45 46 44 41 41 45 49 48 47 48 50 49 46 42 40 41 41 41 42 38 37 36 39 47 47 50 60 53 50 48 31 20 20 20 20 16 16 18 19 21 23 23 23 20 18 19 24 26 26 22 22 24 21 21 20 18 19 16 26 49 53 52 60 63 67 71 76 79 79 77 74 71 71 71 70 69 67 63 61 64 66
37 42 44 43 41 42 43 40 39 40 42 44 44 46 49 48 45 43 41 39 35 32 35 34 31 30 29 29 26 26 29 33 48 55 47 36 23 16 19 17 15 16 17 19 19 20 20 20 18 17 22 25 25 22 20 22 20 19 20 17 19 16 23 44 48 46 54 59 63 68 72 76 76 74 73 72 73 73 71 68 64 62 62 66 69
37 38 42 43 41 39 39 38 37 38 39 41 42 44 48 49 47 44 42 40 35 29 31 33 31 31 31 28 23 21 21 24 29 37 52 57 38 24 20 16 15 14 14 15 15 17 18 19 19 17 19 21 23 22 19 19 18 19 19 16 18 17 20 39 45 43 48 53 60 64 67 70 70 69 71 70 70 72 70 66 64 64 65 69 73
39 38 39 37 39 39 37 35 35 36 37 40 43 44 46 49 49 48 45 44 42 36 33 34 33 33 35 32 25 23 24 25 25 27 38 46 44 43 29 16 16 14 12 14 14 17 18 17 19 18 18 19 21 21 18 18 17 17 17 16 19 17 21 37 42 40 43 47 53 57 58 61 62 64 66 64 65 66 65 64 64 64 65 70 73
46 46 42 35 35 38 37 36 33 30 29 32 36 38 41 47 51 50 48 47 46 43 38 37 35 33 34 34 29 26 26 26 29 30 33 37 43 47 33 23 25 19 13 15 16 19 19 18 18 18 18 20 21 20 17 16 16 16 17 19 20 18 26 39 40 38 41 42 46 48 50 53 55 56 57 57 60 60 59 60 60 60 62 66 67
52 51 46 38 36 36 36 35 33 27 23 24 22 22 30 39 46 50 51 49 46 45 42 39 37 34 32 33 32 30 28 27 28 31 38 41 44 47 38 30 31 27 20 19 21 22 20 17 18 17 17 19 21 19 16 15 16 17 20 21 21 20 28 38 38 38 38 38 41 43 44 46 47 48 50 52 55 56 56 56 56 57 61 63 63
56 55 48 40 37 37 36 36 39 37 34 33 25 18 20 24 29 40 48 50 46 44 43 40 37 34 31 31 31 32 31 29 28 30 35 37 39 45 41 33 34 31 26 25 25 26 23 17 16 17 17 17 18 16 15 17 19 21 22 22 22 21 23 30 35 37 37 38 40 40 41 42 42 44 46 48 50 52 54 54 55 57 60 60 61
63 62 52 40 35 34 35 38 41 41 41 43 38 27 21 19 18 24 31 35 36 35 36 36 34 32 31 30 29 30 31 31 29 29 34 36 36 37 35 37 41 34 28 28 27 26 24 19 18 17 15 15 17 19 20 22 23 24 23 22 23 22 21 24 32 36 38 40 40 40 41 42 44 44 44 45 46 48 53 53 53 56 58 57 60
64 66 61 51 43 35 34 39 41 41 43 45 43 34 28 27 25 24 25 26 26 27 28 28 27 28 30 30 30 29 29 30 29 28 32 34 33 32 33 37 40 37 33 28 25 26 23 18 17 15 15 18 21 23 25 25 25 24 24 23 23 23 23 24 31 37 40 41 41 42 44 45 45 45 44 46 46 47 50 50 52 56 55 55 60
63 66 67 63 58 48 37 34 38 42 43 43 42 40 38 36 33 32 32 27 22 22 26 26 24 26 28 28 28 26 24 25 27 28 30 32 31 29 32 33 30 38 46 35 25 25 23 21 19 16 19 23 23 22 24 26 27 25 24 24 24 25 26 26 28 31 34 39 43 45 47 47 46 44 44 46 47 48 49 49 53 55 53 54 59
64 66 68 64 63 61 47 29 28 38 44 42 40 43 45 42 39 37 30 24 22 19 21 25 23 24 26 26 27 26 24 24 27 31 29 29 31 27 31 34 22 32 57 58 47 36 27 26 25 22 25 24 20 19 24 28 28 27 27 26 28 28 26 27 27 25 27 30 34 36 37 40 45 48 48 49 49 49 49 50 53 53 50 51 57
65 64 67 65 61 65 58 37 24 27 35 40 42 46 48 46 46 40 24 18 24 20 18 23 24 24 25 27 34 37 36 31 28 32 28 26 32 30 31 34 25 34 54 61 60 46 29 27 27 25 24 19 16 18 22 29 30 30 31 29 29 28 27 28 28 28 28 25 27 29 25 30 44 53 54 54 53 51 52 52 53 53 51 51 56
65 63 65 65 61 63 63 55 41 28 23 26 35 42 43 41 41 35 23 20 23 19 18 21 23 22 21 27 41 46 45 40 32 33 30 25 30 32 32 32 30 38 43 44 49 38 22 25 26 23 22 19 19 21 24 32 34 33 34 32 30 28 28 30 30 33 34 31 35 33 20 22 41 54 56 55 55 55 55 54 52 53 52 53 55
64 64 65 64 62 63 63 63 60 50 33 20 22 34 39 39 37 31 28 29 27 23 23 26 25 23 21 27 39 45 48 48 43 42 36 25 26 33 37 36 33 35 33 35 45 39 26 27 27 26 28 26 26 26 27 34 37 36 38 34 30 30 32 32 33 37 38 38 41 33 17 17 30 41 46 50 56 57 54 52 51 53 53 53 54
63 63 64 63 63 64 63 62 62 62 54 34 25 36 45 47 44 36 34 36 35 31 30 30 30 29 28 30 34 39 48 53 51 49 39 28 28 33 36 37 37 39 35 34 45 45 34 31 32 30 31 31 30 28 28 34 37 39 40 37 33 35 35 32 35 40 39 41 41 27 16 18 23 30 36 41 47 48 45 44 46 50 51 51 52
62 62 63 63 64 64 63 63 61 61 63 52 39 39 47 51 49 42 38 39 42 42 40 38 34 31 34 36 34 36 47 54 52 49 43 36 35 37 37 36 35 39 39 37 43 47 40 35 36 34 32 33 34 31 30 35 40 42 42 39 37 39 36 30 35 43 42 44 40 23 16 20 22 28 34 37 40 42 42 43 44 47 49 50 52
60 61 61 62 65 66 64 63 62 60 62 62 53 44 43 47 48 45 40 37 38 43 46 45 39 35 39 43 40 37 42 48 48 48 49 45 41 42 44 44 42 42 42 40 42 46 45 41 38 36 35 35 36 35 33 37 42 44 43 40 39 40 35 27 34 45 45 45 38 22 17 22 25 31 35 38 43 45 47 49 49 50 50 50 51
58 59 60 61 63 66 66 64 64 63 62 64 62 55 47 44 45 44 42 37 34 36 40 42 41 42 46 50 47 42 43 46 47 49 52 51 45 42 43 47 48 46 44 44 45 47 49 46 40 38 38 38 38 39 38 38 43 45 44 41 40 40 33 23 29 42 44 42 35 24 19 21 27 35 39 42 45 46 48 50 51 51 51 51 53
57 57 58 61 62 65 66 65 64 64 64 64 64 63 58 53 51 49 46 43 38 35 33 34 40 43 46 50 51 47 46 46 47 49 52 54 50 43 40 43 45 43 41 42 44 45 47 47 43 40 40 40 42 44 43 41 44 46 44 42 40 38 30 18 20 32 36 35 34 27 21 21 28 36 41 43 44 45 48 50 51 52 52 53 57
55 57 58 60 62 64 66 66 65 64 64 66 65 64 63 61 59 57 54 51 47 43 37 34 38 43 45 47 48 50 50 47 45 45 47 51 51 47 44 43 41 38 37 40 43 44 46 46 44 43 43 45 48 49 48 47 48 47 44 43 41 36 27 14 12 20 25 29 34 30 22 22 29 36 40 41 44 48 51 52 52 53 55 58 61
52 55 58 59 61 63 64 65 66 64 64 65 66 65 64 63 62 60 59 57 54 52 49 44 41 43 45 44 44 48 51 49 46 44 43 44 46 47 47 45 43 38 36 41 45 47 48 48 46 47 49 52 53 53 53 53 50 47 44 42 37 30 25 20 14 11 17 26 33 33 27 24 30 37 39 39 46 53 53 54 57 59 60 61 63
50 51 55 59 60 61 62 64 66 66 66 66 66 66 65 64 63 61 60 59 58 56 55 53 49 46 46 45 42 42 45 49 48 45 43 43 42 43 44 44 45 43 40 42 46 49 51 51 51 53 54 56 58 59 60 57 51 47 45 42 36 25 21 25 23 13 13 24 32 34 30 25 30 37 37 38 47 55 56 57 59 59 60 61 62
49 49 52 57 59 60 62 63 65 66 67 67 67 66 66 65 64 63 61 60 59 58 57 56 54 52 50 48 44 40 39 41 45 45 45 44 44 44 44 44 45 47 46 45 48 52 52 53 55 55 58 61 63 64 63 58 52 47 43 41 40 31 21 23 26 20 15 21 30 34 29 24 29 35 37 39 45 54 60 59 55 54 57 60 62
52 50 50 54 58 60 61 63 64 66 67 67 67 67 66 65 64 64 63 61 59 59 58 57 56 55 53 51 49 45 41 38 40 43 43 43 44 44 44 44 46 49 50 49 52 54 54 56 58 59 64 68 67 66 63 57 51 45 41 41 40 34 27 23 21 18 20 25 29 31 29 27 30 35 39 41 46 57 61 55 51 54 58 61 64
54 53 52 54 58 59 60 62 63 64 65 66 65 65 65 65 65 64 63 62 61 59 59 58 58 57 56 54 52 50 47 43 42 42 40 41 43 43 42 43 44 46 50 51 53 53 54 58 61 64 71 72 66 61 55 46 42 40 40 40 37 32 33 34 24 14 19 28 28 26 29 30 31 35 39 42 50 59 57 49 51 57 60 62 66
54 55 55 56 58 59 59 60 61 62 63 63 63 64 64 64 65 65 64 63 62 61 60 59 59 58 57 56 54 53 51 49 47 44 41 40 41 41 41 41 41 43 46 49 50 51 54 59 64 67 71 66 55 47 40 33 33 37 38 38 37 34 38 50 49 30 21 26 26 26 31 31 31 35 38 42 51 56 51 47 51 57 59 63 69
51 55 57 57 57 58 59 59 59 59 60 60 60 61 62 63 64 64 65 64 63 62 61 60 59 59 58 57 56 55 54 56 57 52 45 41 40 40 40 40 40 41 44 45 46 48 50 55 61 62 58 51 43 36 33 33 37 41 42 39 39 38 39 51 60 45 30 29 29 32 37 34 32 36 37 39 49 52 47 46 51 57 60 64 70
51 53 56 57 56 56 57 58 58 58 58 58 58 59 59 61 62 63 64 64 64 63 61 61 60 60 60 59 58 56 55 57 60 57 50 43 40 40 39 39 40 41 43 45 45 46 47 49 53 52 47 43 40 38 40 43 45 47 47 45 44 44 42 47 53 47 40 35 33 42 48 38 34 41 39 36 41 44 44 47 51 55 60 64 69
54 54 55 55 55 54 54 56 57 58 58 57 56 57 58 59 60 61 63 64 64 64 62 61 61 60 60 59 59 58 56 55 57 57 54 49 43 41 39 39 40 42 44 46 46 47 48 48 48 47 45 44 43 46 49 51 52 53 53 53 52 48 47 48 50 50 47 38 36 54 62 44 35 43 41 33 35 39 42 47 49 52 59 62 66
57 56 56 56 56 54 53 56 58 59 58 56 56 56 56 58 59 60 62 63 64 65 63 62 62 61 61 61 60 59 57 56 56 56 56 54 49 44 42 41 40 40 42 43 44 45 45 45 46 45 47 48 49 53 56 56 58 60 60 60 58 54 53 54 53 52 49 39 37 57 69 49 34 41 42 35 37 40 44 47 47 48 53 57 63
60 59 59 58 58 56 55 57 59 60 58 56 56 55 54 55 57 59 62 63 64 64 64 64 63 62 61 62 61 60 59 57 56 56 57 56 52 48 45 43 41 41 42 41 42 43 43 45 47 49 51 54 55 57 59 60 62 64 64 64 62 59 58 58 57 53 49 40 33 50 69 56 37 40 44 38 40 41 41 44 45 45 47 51 61
62 62 62 61 60 59 57 58 60 61 59 57 56 56 55 55 57 59 61 61 64 69 69 65 64 64 64 63 63 62 60 60 58 57 57 55 52 49 46 44 44 43 42 42 43 44 45 47 51 53 54 56 55 53 55 59 63 66 68 67 66 63 60 61 62 57 51 41 31 42 64 59 42 43 47 42 42 42 40 41 42 42 44 47 60
63 62 62 62 61 60 60 59 60 61 60 58 57 57 56 56 57 60 63 66 73 77 73 67 67 68 67 68 70 66 62 62 61 60 60 57 53 50 47 46 47 45 44 44 44 45 47 49 52 53 53 51 48 47 48 52 59 67 71 71 69 65 60 62 65 63 56 45 33 38 54 53 44 47 50 48 46 43 40 41 41 41 42 48 63
63 62 62 63 62 62 61 60 59 60 60 59 58 59 58 59 65 73 76 77 78 75 68 66 71 72 71 72 74 71 67 66 65 63 62 59 56 54 49 47 48 49 48 47 47 46 48 49 49 49 48 46 43 44 45 46 53 61 65 68 71 69 64 61 63 68 70 57 40 40 49 50 48 48 49 57 63 54 42 40 41 41 42 51 69
Wind_Speed
6 4 1 2 3 4 7 7 5 6 7 10 13 14 12 8 12 17 18 16 16 20 23 22 21 20 20 21 21 20 20 18 18 18 17 17 16 14 13 13 13 13 13 13 12 12 11 11 12 11 10 9 8 10 10 10 10 10 10 10 9 9 9 9 9 9 9 9 9 10 10 10 10 10 10 11 11 11 11 12 12 12 12 12 12
5 4 3 2 3 3 6 7 4 5 6 9 12 14 15 11 10 16 19 19 19 22 24 23 22 20 19 20 21 20 19 18 17 17 16 16 15 13 11 11 11 11 11 11 10 10 10 10 10 9 8 8 7 9 10 9 8 8 9 9 9 9 9 9 9 9 9 9 9 10 10 10 10 11 11 11 11 11 11 11 11 11 12 11 12
5 4 3 3 4 4 6 8 5 4 5 7 10 13 16 16 12 16 20 20 21 23 24 23 22 21 20 21 21 20 18 17 16 15 15 14 14 13 11 10 9 9 9 9 9 9 10 10 9 9 9 8 8 9 9 9 8 7 8 9 9 9 9 9 9 9 9 9 10 10 10 10 11 11 11 12 12 12 11 11 11 11 12 12 12
6 4 4 5 5 5 7 9 6 4 5 6 8 12 14 18 18 17 20 20 20 20 21 23 23 22 21 21 20 19 17 16 15 14 14 13 13 12 12 11 10 9 9 8 8 7 8 8 8 9 8 8 8 7 8 8 8 8 8 8 8 8 8 9 8 9 9 9 9 9 10 10 10 11 11 12 12 12 11 11 11 12 12 12 13
6 5 4 6 6 6 7 8 7 4 4 5 6 10 13 16 19 21 22 21 20 19 22 24 24 23 22 20 20 19 17 16 15 15 14 13 12 12 12 11 10 9 9 8 7 6 6 7 7 8 8 8 8 8 8 8 7 7 8 8 7 8 8 8 8 9 9 9 9 9 9 9 9 10 10 10 10 10 10 10 10 11 11 12 12
7 6 4 5 6 7 7 7 6 5 5 5 6 9 10 13 15 19 23 23 23 21 22 26 26 25 22 21 20 19 18 17 16 15 14 13 11 11 11 10 9 9 9 8 8 7 7 7 8 8 9 9 9 8 8 8 7 7 7 7 7 8 8 8 8 9 9 9 9 9 9 9 8 8 8 8 9 9 9 10 10 11 11 11 12
8 6 4 5 6 8 8 7 6 6 6 6 7 8 9 13 15 17 21 22 24 23 22 25 27 25 23 22 20 19 18 18 16 15 13 12 11 10 10 9 8 8 8 8 8 8 8 8 9 9 9 9 9 9 8 8 7 7 7 7 7 8 8 8 8 8 8 8 8 8 8 8 8 8 8 8 9 9 10 10 10 11 11 11 12
8 6 5 7 7 9 8 8 8 7 7 7 9 9 11 15 16 17 20 21 23 24 23 24 25 23 23 22 19 18 18 17 16 15 13 12 11 10 9 8 7 7 7 8 8 8 8 8 8 9 9 8 9 8 8 8 8 7 7 7 7 7 7 7 7 7 7 7 7 7 7 7 8 8 8 9 9 9 10 11 11 11 12 12 13
8 6 7 8 7 9 9 9 9 9 9 9 10 10 11 15 17 16 18 19 21 22 24 24 22 22 22 21 18 18 18 18 16 15 14 13 11 10 8 6 5 6 7 7 7 6 7 7 7 7 7 7 8 8 7 8 8 7 7 7 7 6 7 7 7 7 7 7 7 7 7 8 8 9 9 9 9 10 10 11 11 12 12 13 13
7 7 7 7 7 9 9 9 9 9 9 10 12 12 12 14 15 15 14 16 18 19 21 23 23 22 22 21 19 19 18 18 17 15 15 13 11 9 7 5 4 4 6 6 5 6 5 5 5 4 5 6 6 6 6 7 9 8 7 7 7 6 7 7 6 7 7 7 7 7 8 8 9 10 10 10 10 11 11 11 12 12 13 14 15
8 8 8 8 8 9 9 10 10 9 10 11 13 14 14 13 13 12 12 13 14 16 17 18 20 21 21 20 19 20 19 18 17 16 14 11 9 8 6 4 2 3 4 4 4 5 5 5 5 4 4 4 3 4 5 6 9 9 7 7 8 8 7 7 7 7 7 7 8 8 8 9 10 10 10 10 11 11 12 13 13 13 14 15 16
8 8 8 8 9 10 10 10 10 10 11 12 12 13 14 14 13 11 11 12 13 14 13 15 17 18 18 17 16 18 19 17 15 12 10 9 8 8 5 3 2 1 2 2 2 3 3 4 6 7 6 3 1 3 5 5 7 10 9 7 7 9 9 8 7 7 7 7 8 8 9 10 10 10 11 12 12 13 13 14 14 15 16 16 16
8 8 8 7 9 10 11 11 11 12 13 12 11 11 13 14 14 13 12 12 12 12 12 14 14 13 12 12 12 12 13 12 9 6 6 7 7 7 5 4 3 2 2 1 1 1 1 3 5 6 7 6 3 4 5 4 5 9 10 8 8 9 11 10 8 8 8 8 8 9 10 10 11 11 12 13 13 13 14 15 15 16 16 16 17
8 9 8 8 9 10 12 12 12 12 12 11 10 11 12 13 14 15 14 13 11 11 11 11 8 7 7 7 6 6 7 6 6 5 5 6 6 7 7 6 4 4 4 2 2 2 1 1 3 4 5 6 4 3 4 3 4 7 9 12 11 10 11 11 10 9 8 9 9 9 10 11 11 12 13 13 14 14 15 16 16 16 17 17 17
7 9 10 10 10 11 12 12 13 12 11 10 10 11 11 11 12 13 14 14 11 9 9 7 5 6 5 3 1 2 2 2 6 8 8 7 6 8 8 8 7 6 5 3 4 4 3 2 2 3 3 4 5 5 5 3 3 4 7 11 12 12 11 11 12 11 9 10 10 10 11 11 12 12 13 14 14 15 16 17 17 18 18 18 19
7 9 10 11 11 11 11 12 13 13 12 11 10 10 10 9 10 10 12 12 10 7 6 5 6 6 4 2 1 2 1 3 5 9 10 9 8 9 10 9 9 9 6 5 5 6 4 3 3 3 3 2 4 6 5 3 3 4 7 10 12 14 12 10 12 12 11 11 11 12 12 12 13 13 14 14 15 15 16 16 17 18 18 18 19
8 10 10 10 11 11 11 11 12 13 12 11 10 10 9 8 8 8 10 10 9 7 6 5 6 6 4 2 2 1 3 3 2 6 10 12 11 12 12 11 11 10 8 6 7 7 6 4 4 4 3 3 3 4 4 3 4 6 8 11 13 15 13 10 12 13 12 12 12 12 12 12 13 13 13 14 14 15 15 15 16 16 17 17 17
9 11 9 9 10 11 11 10 11 12 12 11 10 9 8 7 7 8 9 9 8 8 7 6 6 6 6 4 3 2 3 3 2 2 7 11 12 14 14 13 12 11 10 9 9 9 7 5 4 5 5 4 4 4 4 3 5 7 9 12 14 16 14 10 11 13 12 12 12 12 12 12 12 13 13 13 14 14 14 15 15 16 17 17 18
9 10 9 8 9 10 10 10 10 10 11 11 10 9 9 8 7 8 9 8 7 9 9 9 8 6 5 5 4 3 4 5 4 2 2 6 10 14 16 15 14 13 11 10 10 10 8 7 5 6 6 5 5 5 4 5 7 8 10 12 15 16 15 11 12 14 13 12 12 12 12 13 13 13 13 13 14 14 15 15 16 17 17 18 19
8 9 8 7 7 8 9 9 10 9 9 10 10 9 9 9 9 8 8 8 7 9 11 10 9 7 5 4 4 4 5 5 5 4 3 2 5 9 13 15 15 13 11 11 11 10 9 8 7 7 6 6 6 6 6 6 8 9 10 13 15 17 16 12 12 14 14 13 13 13 13 13 14 14 14 15 15 15 15 16 17 17 18 19 19
7 8 8 7 6 6 7 7 8 9 9 10 10 10 10 10 9 9 9 9 8 9 10 8 8 7 5 4 6 7 6 5 4 4 3 2 3 4 7 10 12 12 11 11 11 11 10 9 8 8 7 6 7 7 7 7 8 9 10 13 15 17 16 12 13 14 15 14 14 14 14 15 15 15 15 16 16 16 17 17 18 18 19 19 19
6 6 6 7 6 5 6 6 5 6 8 10 11 11 11 11 11 10 10 10 10 9 8 7 7 7 6 5 6 7 5 4 3 3 2 3 2 1 2 5 7 9 11 12 12 11 10 10 9 9 8 8 8 8 8 8 8 9 12 14 16 17 14 12 13 14 15 15 15 15 15 16 16 16 17 17 17 17 18 18 19 19 20 20 20
6 5 5 7 7 5 6 6 4 4 6 8 9 10 11 12 12 12 11 11 10 9 9 8 6 6 6 5 5 6 4 3 3 3 2 1 2 1 1 2 3 6 9 11 14 13 12 11 10 8 9 9 8 8 8 8 9 11 14 15 16 16 13 12 13 14 16 16 16 17 17 17 17 17 18 18 18 18 19 19 19 20 20 20 21
7 6 6 8 8 7 7 7 5 4 5 6 6 8 9 10 11 12 12 12 11 10 10 9 7 7 6 5 5 4 4 3 3 3 3 2 2 2 1 1 3 5 6 7 10 14 13 11 10 9 8 8 7 6 7 8 10 12 14 15 17 17 14 13 14 15 17 17 17 18 19 19 19 19 19 19 19 19 19 19 19 19 20 21 22
8 6 6 8 9 8 8 9 7 6 6 5 5 6 8 8 9 10 11 11 11 11 11 10 9 8 7 6 5 4 3 3 3 3 3 2 1 2 1 1 3 4 4 3 3 9 11 9 8 9 6 4 3 4 7 9 11 12 14 16 18 17 15 15 16 17 18 18 18 19 20 20 20 20 20 20 20 19 18 18 18 20 20 21 22
9 7 6 6 7 8 8 9 9 8 7 5 3 4 6 6 7 8 8 9 10 10 9 9 9 8 7 6 5 4 4 4 4 3 2 2 1 1 1 1 3 3 3 2 2 3 6 4 4 4 4 2 2 5 7 8 10 12 13 16 16 15 15 17 17 17 18 18 18 19 19 19 20 21 21 21 20 18 17 18 19 20 20 21 21
9 8 7 6 6 6 7 8 10 10 8 7 5 5 6 5 6 6 6 7 8 9 9 8 9 9 7 7 5 4 5 5 5 3 3 3 2 2 1 0 1 2 3 2 0 2 4 4 4 5 6 2 6 8 8 8 10 12 13 14 14 13 14 15 15 16 17 18 17 18 19 20 21 21 22 21 20 19 19 19 19 20 21 21 21
11 9 9 8 7 5 5 6 10 11 10 9 8 8 7 6 6 6 6 8 8 9 9 8 8 8 7 7 6 5 5 6 6 5 4 5 4 3 2 1 2 1 3 3 2 1 3 4 4 6 6 6 10 10 9 9 10 11 13 14 13 13 12 12 15 17 19 18 18 20 23 24 23 22 21 20 20 20 19 20 20 20 21 21 22
13 12 11 10 8 6 5 5 8 11 12 12 10 9 9 8 7 6 7 8 7 8 8 7 7 7 8 9 7 6 6 6 7 7 6 7 6 5 4 3 3 3 1 2 3 4 5 4 4 6 7 9 12 12 11 9 9 11 13 14 13 12 12 14 18 20 20 19 20 24 27 25 22 21 20 19 20 20 21 21 20 19 21 22 21
15 14 13 12 11 9 8 7 7 8 10 12 12 12 11 10 8 8 8 8 8 8 9 8 7 7 8 10 9 7 7 8 8 8 7 7 9 8 6 5 4 4 4 3 3 5 6 6 4 5 9 12 14 15 12 9 9 12 14 14 13 13 15 19 21 21 20 20 22 26 25 22 20 20 20 20 20 20 20 20 19 18 19 20 20
17 16 15 15 14 12 10 9 8 7 8 10 12 13 12 11 10 9 9 9 9 9 9 8 8 8 8 10 11 10 9 9 9 8 8 7 9 10 8 7 7 7 7 5 2 4 6 6 6 10 13 14 15 17 13 10 10 12 14 14 14 15 19 22 22 20 20 21 24 26 23 19 19 19 19 19 18 18 17 17 17 18 19 20 20
19 17 17 17 16 14 13 12 11 10 9 10 12 13 13 13 12 11 11 11 11 11 10 9 9 10 10 10 11 12 11 10 10 10 9 8 9 11 10 9 9 9 11 9 6 8 11 11 13 15 14 15 17 18 15 12 10 11 14 15 15 17 21 23 21 18 19 23 26 25 21 19 18 17 17 18 18 18 19 19 19 19 20 21 21
20 19 18 18 18 16 15 14 13 13 12 12 13 14 14 14 14 13 13 13 13 13 12 11 12 12 13 12 12 12 12 12 13 12 11 9 10 11 11 11 11 11 13 14 11 11 15 16 15 15 15 16 18 18 17 14 11 12 14 15 16 18 22 23 20 18 20 25 26 23 20 19 18 17 17 17 19 20 20 21 21 21 22 23 22
20 20 19 20 19 18 17 16 15 15 15 15 15 15 16 16 15 15 15 15 15 15 15 15 14 14 15 14 13 12 13 14 14 14 13 12 12 13 13 13 14 14 14 16 15 13 16 19 18 17 16 16 18 19 18 15 14 16 15 15 17 20 22 22 20 20 22 24 24 22 20 19 18 17 17 17 18 18 18 19 20 21 23 22 20
21 21 20 21 21 21 19 18 17 17 17 17 17 17 18 17 17 17 17 17 17 17 18 18 17 16 17 17 16 14 14 16 17 16 16 16 15 15 15 15 16 16 16 17 18 16 18 20 20 16 15 16 18 20 18 16 16 17 16 16 18 21 22 22 21 22 23 24 23 21 20 19 18 17 17 17 17 17 17 18 19 19 19 18 17
22 22 22 23 23 23 22 20 20 19 19 19 19 20 20 19 19 19 19 19 19 19 20 20 19 18 19 20 19 17 17 18 19 19 19 19 19 18 17 17 17 17 16 16 18 18 19 19 18 15 15 17 19 20 19 18 17 17 17 18 19 21 22 22 23 24 24 24 22 21 21 21 18 17 17 17 17 18 17 17 16 15 15 16 17
24 24 25 25 25 25 24 23 22 22 21 21 21 21 21 21 21 21 21 21 22 22 22 22 21 21 22 22 22 20 20 21 22 22 22 21 21 21 20 19 19 19 18 17 17 17 18 19 18 17 17 18 19 21 20 18 18 18 19 21 22 21 22 23 24 25 26 25 22 21 23 23 19 16 16 16 17 17 15 13 13 13 15 16 16
26 26 27 28 28 27 26 25 24 24 23 23 24 24 23 23 23 23 24 24 24 24 24 24 24 23 24 25 24 24 24 24 24 24 23 23 23 23 23 22 21 20 20 19 18 17 18 19 19 19 19 19 21 22 20 17 16 17 19 24 25 24 22 23 24 25 26 25 23 22 25 25 20 16 16 16 16 16 13 11 11 14 16 18 18
28 27 28 30 31 29 28 27 26 26 25 25 26 26 26 26 26 27 27 27 26 27 27 27 26 26 26 26 26 26 26 27 27 26 25 25 24 24 24 23 21 20 20 20 19 19 20 20 20 21 21 20 21 22 20 16 15 16 17 20 24 26 25 24 24 25 26 25 24 24 26 25 19 15 15 15 14 14 12 11 14 17 19 20 21
30 30 29 30 31 31 29 28 27 27 27 28 29 29 29 28 29 30 30 30 29 29 29 29 28 28 28 28 28 27 28 28 28 27 27 27 27 27 26 24 23 22 21 20 21 22 22 21 21 22 22 21 21 21 20 17 16 17 17 16 19 24 25 26 25 24 25 25 25 26 28 26 20 16 16 15 14 13 11 14 19 22 21 20 21
31 31 31 30 31 32 31 30 29 29 29 31 31 32 32 32 31 32 32 32 32 32 32 31 31 30 30 30 30 29 28 28 28 28 29 28 28 28 27 25 24 23 22 22 22 22 22 21 22 22 21 21 21 21 21 20 18 18 18 17 19 21 22 26 27 24 22 23 25 28 30 27 22 19 17 17 16 13 13 18 23 22 20 20 21
30 31 32 31 32 32 32 31 31 31 32 33 33 34 34 34 34 34 34 34 34 34 34 34 33 33 32 32 31 30 29 29 28 28 29 28 28 29 28 27 25 24 24 24 24 24 23 22 23 21 19 20 21 20 21 23 21 19 18 18 19 20 20 22 26 25 22 19 24 31 31 27 23 20 18 18 16 14 16 22 23 21 20 21 22
31 31 32 33 33 34 33 33 32 33 34 35 35 35 35 36 37 36 36 36 36 36 36 36 36 35 34 33 32 31 30 29 29 30 29 29 29 29 29 28 27 26 25 25 26 25 24 23 22 20 18 21 23 21 21 23 21 19 19 18 17 18 17 15 16 21 21 19 24 31 31 27 24 21 20 19 17 16 19 23 23 21 20 21 22
33 32 33 34 34 34 35 34 35 36 37 37 36 37 37 37 38 38 39 39 38 38 37 37 38 37 35 34 33 32 31 29 29 30 30 30 29 30 29 29 29 28 27 27 27 26 25 24 23 20 20 23 25 23 22 22 20 19 18 17 16 17 18 15 15 19 23 23 24 27 29 27 24 22 21 20 19 20 22 24 22 20 20 21 22
35 35 35 36 36 36 36 37 38 38 39 39 38 38 39 39 39 40 40 40 40 40 40 39 39 38 36 35 34 34 33 30 28 28 30 30 30 29 29 29 29 30 29 29 28 27 27 25 24 24 24 25 25 24 22 20 19 19 18 18 18 18 19 20 20 23 27 26 23 21 25 27 24 22 22 22 22 23 24 23 21 20 20 21 23
36 37 38 39 39 39 39 39 40 41 41 42 41 40 41 41 41 41 41 42 42 42 42 41 41 39 38 37 36 35 34 33 30 28 29 30 30 30 30 30 30 30 30 30 30 29 28 27 27 27 26 26 26 24 22 21 21 21 21 21 20 19 21 23 25 28 29 25 19 14 17 24 24 21 23 24 24 25 24 22 21 20 20 23 24
37 39 40 40 41 41 41 40 41 42 43 43 42 42 42 42 42 42 43 43 42 42 43 43 42 41 40 38 37 36 35 33 31 29 28 29 30 30 31 31 31 31 31 31 31 30 29 28 28 28 26 25 25 24 22 23 24 24 23 22 21 20 21 23 26 30 28 23 17 9 12 21 24 21 23 25 25 25 23 20 20 21 22 24 26
37 38 38 39 40 41 41 41 41 43 45 45 44 44 44 43 42 42 42 43 44 43 43 43 42 42 41 39 38 37 35 34 31 29 27 27 29 30 31 32 31 31 31 31 30 30 29 27 27 26 25 24 24 22 22 23 24 25 24 22 22 21 19 19 23 28 27 23 20 14 13 19 22 20 24 27 26 25 24 21 20 23 25 26 26
36 37 38 39 39 40 41 42 42 43 45 46 45 45 44 43 42 42 43 45 44 41 40 42 43 42 41 40 38 36 35 33 31 28 27 27 28 30 31 31 30 31 31 30 29 28 27 26 25 25 24 23 22 21 22 22 24 24 22 22 22 20 16 13 15 22 27 27 25 19 15 17 19 20 24 27 26 25 24 23 23 25 27 28 26
37 38 39 39 39 41 41 42 42 42 45 46 45 45 45 44 44 43 42 40 35 34 38 43 43 40 39 38 36 34 33 32 29 28 27 27 28 29 30 30 29 29 30 29 27 26 24 23 24 24 24 23 22 21 21 21 23 23 23 23 23 19 16 15 15 19 26 29 25 14 10 14 20 21 22 23 25 27 25 23 25 28 29 27 24
39 40 40 39 40 41 41 42 43 43 45 46 45 44 44 43 40 34 29 27 28 33 41 43 39 36 36 35 32 31 30 29 27 27 27 27 28 29 29 28 27 29 31 29 26 25 23 22 23 23 23 22 21 20 20 20 20 21 21 23 23 21 20 21 20 15 14 18 19 12 9 16 21 23 20 14 13 20 25 26 28 31 30 26 22
Wind_Direction
129 147 160 96 99 114 127 140 138 103 80 79 83 76 75 113 167 179 178 169 164 167 166 162 159 154 150 147 145 144 140 133 128 123 120 116 110 105 102 100 100 97 96 94 90 86 83 80 79 76 71 64 45 30 37 46 53 57 59 57 53 51 48 43 40 38 36 33 32 31 30 29 29 28 27 27 26 26 25 24 24 22 21 21 19
136 148 194 170 135 153 142 151 154 107 85 79 84 80 77 94 154 176 178 174 170 166 163 159 158 158 154 151 150 147 142 136 131 127 123 119 115 110 106 105 105 102 100 97 94 90 86 83 80 77 71 63 51 43 42 45 57 60 57 56 51 48 43 37 35 32 31 29 27 25 26 27 26 25 25 24 23 22 21 19 17 16 14 13 13
141 147 190 184 164 179 164 165 164 120 94 80 86 87 83 90 126 169 179 178 173 167 163 159 161 162 157 155 155 149 143 140 136 132 127 123 120 115 111 108 106 104 101 97 95 92 88 85 80 77 75 70 68 66 60 59 65 63 54 53 50 46 39 34 33 31 31 30 26 25 25 24 23 22 21 19 16 14 11 8 5 5 6 7 8
144 146 175 178 167 172 174 174 171 137 107 85 92 97 94 93 106 142 166 168 165 166 167 163 165 165 160 159 157 151 146 144 140 134 129 125 120 114 111 107 103 99 96 93 92 92 89 86 83 79 78 77 76 75 73 71 69 67 61 54 48 41 36 35 36 36 35 33 29 28 28 27 26 24 21 18 14 10 7 3 1 1 1 1 2
144 146 161 174 169 163 171 176 175 156 115 93 104 110 110 105 105 119 134 140 141 155 167 167 168 166 161 161 157 151 147 144 141 135 130 125 118 113 110 107 104 95 86 80 76 83 89 86 83 83 83 83 83 82 79 76 72 69 63 55 50 44 40 39 39 37 34 32 30 30 29 29 27 24 19 15 12 9 5 2 360 359 358 357 356
139 143 145 169 175 164 162 164 161 158 132 103 112 123 117 114 117 117 118 120 120 134 157 163 166 165 162 161 155 148 145 144 141 137 133 126 119 115 112 107 101 88 76 65 60 70 78 77 76 79 87 88 85 84 79 76 72 66 59 53 51 44 40 39 36 33 31 30 28 27 26 23 19 16 11 6 5 2 358 356 354 353 352 351 350
132 134 124 146 166 163 155 145 139 147 141 112 110 128 121 116 126 126 117 114 112 116 135 152 159 162 163 159 150 144 145 147 145 142 138 129 122 119 114 105 92 76 63 54 60 77 78 73 69 71 84 89 86 83 76 72 66 61 54 49 45 38 35 34 29 26 25 25 23 21 19 13 8 3 1 359 356 355 353 351 349 347 345 343 344
123 119 118 132 143 154 153 136 133 143 139 119 113 125 129 124 126 129 123 117 114 111 118 139 154 160 161 154 145 148 153 152 148 145 140 131 125 121 112 101 85 66 53 47 58 84 89 79 73 73 80 86 84 81 75 67 58 56 51 44 40 33 28 24 23 20 17 18 15 11 9 6 3 359 356 354 351 349 348 347 344 342 342 340 338
123 120 124 130 134 145 148 139 136 144 141 121 110 120 136 135 128 128 127 122 120 116 113 124 140 154 159 153 151 157 159 155 151 146 142 135 128 123 114 101 85 63 49 40 48 79 91 82 79 80 78 81 79 73 73 62 50 50 48 41 36 27 21 16 14 11 8 9 6 1 2 2 359 357 353 350 348 346 344 344 342 339 339 339 337
126 131 131 130 137 143 143 143 144 147 144 120 103 114 136 142 133 128 129 128 128 125 121 120 125 138 149 156 164 167 162 158 154 148 145 139 132 130 122 105 88 65 45 33 42 61 71 66 62 72 83 91 80 64 64 47 39 45 47 39 31 24 16 10 7 4 3 2 359 355 356 355 352 350 348 345 344 344 344 343 342 340 339 339 339
128 134 133 127 136 144 141 146 152 151 144 124 105 110 126 136 138 134 130 130 131 131 131 129 125 128 136 145 159 165 161 157 153 149 146 142 141 140 134 122 97 70 41 26 41 47 53 55 48 50 74 100 91 56 37 28 31 36 43 40 28 22 13 5 3 358 356 354 352 349 348 348 346 344 343 343 343 343 342 341 340 340 339 339 338
132 136 136 130 134 142 142 144 155 154 144 131 113 109 118 127 134 138 136 131 131 130 134 138 132 127 129 130 137 149 153 151 146 142 142 146 152 153 150 155 139 69 5 2 30 36 43 51 45 40 35 31 14 1 7 23 24 18 30 39 26 19 11 2 356 352 350 347 345 344 342 343 342 340 339 339 340 340 339 338 337 337 336 335 334
135 139 137 137 139 144 144 143 151 151 143 134 121 114 117 124 130 136 141 137 132 130 137 142 135 127 129 127 123 131 143 149 145 137 144 158 169 178 184 184 185 215 241 265 326 340 31 39 34 27 23 18 338 321 1 32 3 360 16 24 17 11 6 3 353 345 343 340 339 337 336 337 338 338 337 338 338 337 336 335 333 332 331 330 328
142 144 133 129 133 144 149 148 152 149 141 136 130 122 119 127 135 135 137 138 133 134 146 149 133 121 128 121 108 112 124 143 160 171 173 178 189 197 201 204 211 221 218 226 256 252 282 16 12 2 9 22 13 349 13 25 347 352 4 7 10 4 359 1 354 343 337 335 333 332 331 332 334 335 336 337 337 335 334 332 330 329 326 325 324
142 149 140 132 127 135 146 153 159 154 144 140 136 130 123 126 138 140 138 135 131 137 154 163 146 123 107 92 95 108 104 162 187 193 190 189 199 204 209 215 215 213 214 230 248 251 259 288 328 331 337 15 29 20 22 20 356 349 350 357 5 2 355 354 350 342 332 331 330 328 328 328 329 332 334 335 336 334 333 331 328 327 325 324 322
132 142 146 145 135 132 139 149 159 159 153 147 143 140 134 132 141 150 151 144 137 136 148 161 164 155 117 72 74 100 231 251 215 205 201 198 205 210 216 219 211 207 214 235 251 251 254 282 306 299 297 339 17 14 15 22 358 337 345 354 358 357 354 347 346 343 334 329 328 327 326 326 326 328 331 332 331 330 329 327 326 324 322 320 318
134 134 138 147 145 140 140 144 154 161 162 157 153 151 147 146 150 161 169 166 160 153 149 151 168 184 182 144 94 108 231 235 206 215 213 208 212 214 215 218 212 210 216 231 244 244 250 277 302 297 285 287 327 352 359 5 352 341 346 352 352 352 350 341 340 342 335 327 324 323 322 321 322 323 325 325 324 324 322 322 320 318 317 315 312
137 135 128 134 144 149 150 146 148 158 166 165 159 159 159 158 159 168 176 178 181 175 167 164 164 181 192 186 187 200 205 178 142 221 221 218 220 215 216 218 215 216 218 225 237 239 249 268 297 302 280 266 286 322 336 330 336 340 340 345 349 350 346 335 334 338 333 326 321 317 316 314 314 316 317 318 319 318 318 318 317 316 316 314 311
127 137 132 127 133 148 160 160 154 153 163 169 165 166 168 166 166 173 175 178 190 183 170 168 168 169 182 196 199 187 177 174 173 182 204 225 223 212 214 217 214 220 221 226 236 239 249 261 289 305 282 265 278 301 319 314 323 332 333 339 345 346 341 328 327 334 332 325 319 314 312 309 310 312 313 314 316 317 317 317 316 317 318 316 316
118 127 133 134 132 144 161 171 173 167 167 171 172 174 175 171 169 173 175 175 183 183 172 170 176 174 171 185 186 174 171 181 191 188 161 193 227 214 214 215 214 221 228 235 239 242 255 263 278 296 286 275 279 290 305 308 318 325 327 335 341 342 339 325 322 330 330 325 319 313 311 308 308 308 308 310 312 313 315 316 316 317 318 319 319
127 127 135 149 152 153 162 170 181 185 186 186 183 185 189 183 176 175 175 172 172 180 179 176 181 183 178 166 156 151 152 156 173 181 147 142 224 235 224 219 219 222 226 234 238 241 256 267 274 283 283 282 278 281 295 303 313 319 325 335 339 338 333 318 315 324 326 323 317 314 312 309 308 307 305 306 307 308 311 313 314 315 317 319 317
148 148 152 167 172 169 169 169 176 187 195 200 198 198 199 193 188 184 179 174 172 178 183 182 185 189 189 181 166 158 156 151 156 168 138 123 154 240 227 211 224 232 228 230 234 241 255 264 269 273 277 281 276 277 292 305 312 319 329 335 337 334 323 306 309 318 322 320 316 315 312 309 307 306 305 304 304 305 308 310 311 312 314 316 314
166 169 176 180 179 181 183 176 170 174 178 186 192 193 192 190 191 189 185 182 180 182 183 181 186 191 193 193 189 183 184 184 175 186 206 140 129 183 233 212 244 247 238 239 241 244 255 259 260 269 279 280 276 279 295 311 319 325 331 334 333 328 313 299 305 315 320 318 315 315 313 312 310 308 307 304 303 303 304 307 308 311 313 313 314
179 175 184 191 190 189 190 185 177 171 163 159 166 172 174 177 181 184 187 189 190 191 188 185 188 191 190 189 189 191 191 181 175 187 209 205 166 180 237 293 273 255 251 260 250 241 247 253 252 267 283 278 272 285 304 318 325 331 332 332 330 324 315 308 308 315 321 319 316 317 316 315 312 310 309 307 305 303 302 305 308 312 313 312 314
189 180 182 195 203 200 192 186 182 179 175 165 158 162 165 166 171 177 182 187 192 193 191 190 192 190 187 184 182 183 183 176 172 173 183 200 180 171 218 261 262 263 268 312 283 239 241 250 255 265 274 262 268 311 325 327 330 333 331 328 325 321 319 320 318 318 322 321 318 320 319 318 316 312 311 308 307 305 303 307 310 312 312 312 315
203 196 186 189 205 208 200 194 192 188 186 188 184 170 171 173 175 178 179 184 189 191 190 189 190 191 188 189 194 195 195 195 199 199 201 221 226 198 223 244 247 273 277 315 353 233 224 229 241 228 187 174 298 319 323 326 329 330 325 322 322 322 324 328 327 323 325 326 325 326 325 323 320 317 315 312 310 308 306 307 308 309 310 312 315
215 212 206 199 205 211 210 205 201 195 193 202 206 186 182 191 192 194 194 188 184 184 186 187 189 193 194 196 201 207 208 207 214 228 237 245 252 227 233 217 236 303 329 307 352 128 158 162 171 177 174 239 312 315 312 314 322 324 320 320 324 329 329 328 327 324 327 329 328 331 331 327 322 318 315 312 310 309 306 305 305 306 308 310 313
219 217 217 217 217 221 224 214 206 205 206 209 208 197 197 206 207 210 208 196 187 185 186 190 194 197 202 204 200 203 212 215 220 231 244 250 252 237 233 173 180 258 339 333 295 201 175 184 204 212 229 290 315 318 313 310 317 321 320 322 326 329 326 323 324 324 323 321 320 325 327 325 322 319 316 313 310 308 305 304 303 304 306 308 311
223 221 222 224 223 230 241 232 214 211 214 216 214 209 209 216 224 230 217 202 201 203 201 204 209 207 208 209 208 207 217 229 233 239 251 252 244 230 233 229 194 182 161 322 283 227 209 229 245 245 267 303 320 324 318 311 317 321 322 322 321 321 320 322 325 324 321 317 318 323 324 322 323 322 321 318 314 311 307 306 305 304 307 308 308
221 224 225 225 225 230 238 240 228 218 219 221 218 214 216 224 235 237 225 213 213 215 213 214 221 224 217 215 217 216 224 238 243 248 258 251 236 226 224 228 229 210 182 190 260 246 229 232 248 281 301 316 328 329 322 311 317 323 323 318 313 314 318 322 324 322 321 318 320 324 325 323 323 324 324 323 320 318 314 310 307 306 308 307 306
219 223 225 225 225 229 234 239 238 233 229 225 217 212 217 228 237 237 230 224 224 223 222 222 226 229 224 222 224 221 224 236 242 252 263 250 230 224 222 223 233 241 224 197 214 257 240 238 273 299 311 317 324 327 320 307 314 322 320 311 306 310 316 321 323 321 319 318 320 326 328 326 322 321 324 325 325 325 322 316 309 305 306 304 302
217 222 226 226 227 230 236 241 241 239 238 232 222 217 221 231 239 242 238 233 232 232 232 235 237 236 232 230 230 226 226 235 243 253 260 248 227 221 223 230 236 244 241 223 219 254 260 264 283 298 310 314 317 323 321 313 312 316 312 306 303 308 314 319 321 318 315 317 322 328 332 331 326 320 322 326 325 321 317 313 308 303 304 302 300
216 222 227 229 230 233 238 243 245 243 242 241 234 228 229 234 240 246 245 240 239 240 241 243 244 242 239 239 239 234 233 238 246 252 253 244 231 227 229 237 243 242 241 236 236 261 275 277 285 296 306 308 310 319 324 319 316 314 308 301 301 308 315 319 319 314 313 319 325 331 336 335 329 322 321 322 322 319 314 311 308 303 301 300 298
218 223 229 232 233 235 239 244 247 246 245 246 243 238 237 239 241 245 246 245 243 243 244 246 247 244 241 244 246 242 238 242 246 247 249 246 241 240 240 246 253 252 249 248 246 256 273 280 287 293 298 301 306 316 322 318 318 316 306 298 302 310 317 319 316 312 316 324 329 334 339 337 332 326 324 323 325 325 321 317 312 306 303 300 300
222 227 233 236 235 235 238 243 246 247 247 248 247 244 242 244 245 246 249 250 249 248 248 249 249 246 243 245 248 247 243 244 247 247 248 250 248 248 248 250 257 260 260 259 256 256 264 276 285 286 290 298 303 312 317 314 314 311 298 295 304 312 318 319 315 313 321 330 334 337 341 340 335 332 331 331 333 333 329 323 316 310 306 303 304
226 230 235 237 236 236 238 241 243 245 247 248 248 247 245 246 248 249 251 252 252 253 252 252 252 249 247 247 249 251 249 248 250 250 250 251 250 251 253 253 256 261 262 261 260 261 263 269 276 279 287 295 299 306 312 311 309 303 292 294 305 313 317 319 317 318 326 335 338 339 342 343 338 334 334 334 336 338 332 324 318 315 312 310 307
230 232 235 235 235 235 237 241 243 244 247 248 248 248 248 248 250 252 253 253 254 255 255 254 253 252 251 251 251 251 251 251 252 253 252 252 250 252 255 257 259 260 261 260 262 265 263 264 272 280 287 291 295 302 307 308 304 296 291 296 305 312 317 320 321 323 329 336 340 341 344 346 341 334 334 336 340 343 336 325 323 323 322 320 314
233 234 235 236 236 237 239 242 244 245 247 248 249 251 251 250 252 253 253 254 254 255 256 255 254 253 253 254 255 253 251 251 254 255 254 253 252 251 253 258 261 261 260 259 261 264 265 269 276 282 285 288 293 299 303 302 294 287 294 301 305 312 319 322 324 328 332 336 339 342 344 345 342 334 334 338 345 349 340 328 328 328 327 324 318
235 237 237 238 238 238 240 242 244 246 247 248 250 252 253 252 253 253 253 254 255 255 256 256 255 254 254 255 256 255 253 253 255 256 256 255 254 254 256 258 261 262 261 259 261 264 266 270 273 275 280 285 289 293 297 295 285 282 293 301 305 313 320 321 322 329 334 335 338 341 343 344 341 334 334 338 346 349 338 328 331 330 326 323 322
237 238 240 240 239 238 240 242 244 246 247 248 250 251 252 253 253 253 253 254 254 255 256 257 256 255 254 254 255 256 255 255 257 259 259 258 257 257 258 258 258 259 260 259 260 261 261 263 267 272 278 282 283 286 288 286 281 285 293 297 301 310 317 318 319 326 331 334 336 337 339 342 339 333 335 337 341 342 332 327 331 330 328 328 328
240 240 241 242 239 237 239 242 244 246 247 249 251 251 252 253 253 254 254 254 255 256 256 257 257 256 255 254 255 256 256 256 258 260 260 261 259 258 259 258 256 255 256 257 256 255 256 260 265 271 274 275 276 280 282 281 282 287 293 295 297 304 312 315 317 324 329 331 332 331 334 339 337 334 336 336 336 334 325 327 331 332 333 333 332
242 241 240 239 237 237 240 242 243 245 246 249 251 253 254 254 254 254 254 254 254 254 255 256 256 256 255 254 254 255 257 258 259 259 259 260 259 259 260 260 258 255 254 253 252 253 255 258 262 265 266 268 272 275 279 283 287 288 289 291 294 302 310 313 318 326 330 329 327 327 330 335 335 333 334 333 330 325 321 327 333 334 335 336 334
243 242 241 238 237 238 240 242 244 245 246 249 251 253 254 254 253 253 253 255 254 253 253 253 254 256 255 254 253 253 254 256 258 259 258 259 259 260 260 261 260 258 255 253 253 253 253 255 258 259 259 266 274 278 281 285 288 286 286 288 290 297 306 307 308 317 324 324 322 322 326 330 332 331 330 329 327 321 321 328 334 335 335 335 335
240 241 240 238 237 239 240 242 245 246 248 250 252 253 254 254 253 252 252 253 253 253 253 253 254 255 254 254 253 251 251 253 256 258 257 258 259 260 261 260 260 260 258 257 257 256 254 254 254 254 258 267 276 280 281 284 288 287 285 285 286 291 297 293 285 298 312 318 317 317 319 324 330 331 328 328 326 323 322 327 333 335 334 334 336
238 239 239 239 239 240 241 243 246 247 249 251 252 253 254 254 254 252 251 251 251 252 253 254 255 254 253 253 252 250 250 251 253 255 256 257 258 259 259 259 259 259 259 259 260 259 260 259 257 258 264 269 274 280 286 286 286 285 282 282 285 289 292 291 288 296 309 315 313 311 313 321 330 329 325 328 328 323 323 327 332 334 333 335 337
234 237 239 240 240 241 242 244 246 247 249 250 251 253 253 254 254 252 251 251 250 250 252 254 254 254 254 253 252 251 251 250 249 249 252 256 256 256 257 256 256 257 257 257 258 257 258 260 261 265 271 274 275 282 290 287 282 281 280 281 286 288 289 292 295 300 308 314 314 306 303 317 329 325 319 327 329 323 323 328 332 335 334 336 338
233 235 237 238 239 241 242 243 245 246 248 250 251 253 254 255 254 253 252 251 250 250 252 253 253 254 255 254 253 253 252 251 249 247 249 253 254 254 255 255 255 257 257 258 259 259 261 263 266 272 277 279 279 282 286 284 282 284 283 281 283 284 285 290 296 302 309 315 318 307 291 311 325 321 316 326 329 324 326 331 334 336 336 337 338
234 236 237 238 239 240 242 243 243 245 247 249 250 252 253 254 255 253 252 251 250 249 250 252 253 254 255 254 253 253 253 252 251 249 249 251 253 252 252 254 256 257 259 262 263 264 266 268 271 275 277 278 279 280 283 282 282 283 282 279 279 278 278 284 293 301 309 314 317 310 290 304 321 318 315 325 328 324 326 332 336 337 336 337 338
235 236 238 239 240 241 242 243 243 245 248 250 250 252 253 254 254 253 252 252 250 248 250 254 254 254 254 254 253 253 253 252 252 251 249 248 249 249 250 252 254 256 260 264 264 264 267 269 270 273 274 275 276 277 277 276 277 279 274 270 273 274 273 277 287 299 305 309 314 312 289 295 316 316 314 323 326 323 324 329 333 335 335 336 336
235 238 240 241 242 243 244 244 246 247 250 253 253 254 255 255 254 253 252 251 248 249 254 256 255 253 254 255 254 252 252 253 253 253 250 246 246 247 248 249 251 254 261 266 266 268 270 269 269 269 270 272 275 276 276 275 275 273 266 265 271 271 268 271 276 291 300 304 310 311 279 289 312 316 315 321 322 319 321 325 327 330 333 335 334
235 238 240 241 243 244 245 247 248 249 251 255 256 256 257 257 254 251 252 255 254 254 256 255 254 252 253 254 253 252 253 254 253 253 250 246 244 247 247 246 248 256 264 268 268 270 272 270 269 271 272 275 278 278 279 279 276 273 271 272 273 267 265 270 275 283 296 300 305 307 284 292 309 315 316 320 318 316 319 322 323 327 332 334 332